Tracking 32577 objects as of 15-Dec-2025
HD Live streaming from Space Station
objects crossing your sky now

DELTA 1 DEB

Track DELTA 1 DEB now!
10-day predictions


NORAD ID: 20012
Int'l Code: 1976-077FM
Perigee: 1,250.7 km
Apogee: 1,349.6 km
Inclination: 102.1 °
Period: 111.4 minutes
Semi major axis: 7671 km
RCS: 0.0142 m2 (small)
Launch date: July 29, 1976
Source: United States (US)
Launch site: AIR FORCE WESTERN TEST RANGE (AFWTR)

Note: This is SATELLITE DEBRIS
Your satellite tracking list
Your tracking list is empty




NASA's NSSDC Master Catalog

Two Line Element Set (TLE):
1 20012U 76077FM  25348.08589045  .00001228  00000-0  47074-2 0  9990
2 20012 102.0672  34.7819 0064488   8.9410  20.0073 12.92144596567035
Source of the keplerian elements: AFSPC